Location: Alulod
(14.2076°N, 120.8898°E)
Time: 03:28:11
(UTC+00:00)

Meteor 2-2 Rocket - Pass Details

Date: 13 December 2025
Orbit: 852 x 927 km, 81.3° (Epoch: 15 January)

Event Time Altitude Azimuth Distance (km) Brightness Sun altitude
Rises 21:28:50 0° 354° (N) 3,473 7.1 -10.5°
Reaches altitude 10° 21:31:16 10° 354° (N) 2,545 6.4 -10.0°
Maximum altitude 21:37:04 87° 268° (W) 904 4.4 -8.7°
Drops below altitude 10° 21:43:00 10° 176° (S) 2,592 7.1 -7.3°
Sets 21:45:29 0° 176° (S) 3,542 7.8 -6.8°
